• In Czech Republic
  • List of Countries
  • For 7 days
  • Water Temperature
  • Satellite Maps
  • Weather Map
  • Weather Widgets
  • user-avatar
    Login

    Hourly Weather Durres

    Today, 11 December, Monday

    Time Temperature Precipitation Wind Pressure Humidity
    00:00 +3°C° 0 mm 7 mps 764 mmHg 72%
    01:00 +2°C° 0 mm 8 mps 764 mmHg 71%
    02:00 +2°C° 0 mm 8 mps 764 mmHg 71%
    03:00 +2°C° 0 mm 8 mps 763 mmHg 70%
    04:00 +2°C° 0 mm 8 mps 763 mmHg 69%
    05:00 +2°C° 0 mm 8 mps 763 mmHg 69%
    06:00 +3°C° 0 mm 9 mps 763 mmHg 69%
    07:00 +3°C° 0 mm 9 mps 763 mmHg 68%
    08:00 +6°C° 0 mm 9 mps 763 mmHg 68%
    09:00 +7°C° 0 mm 9 mps 763 mmHg 67%
    10:00 +10°C° 0 mm 9 mps 763 mmHg 66%
    11:00 +11°C° 0 mm 10 mps 763 mmHg 65%
    12:00 +11°C° 0 mm 10 mps 763 mmHg 64%
    13:00 +12°C° 0 mm 10 mps 762 mmHg 63%
    14:00 +11°C° 0 mm 10 mps 762 mmHg 67%
    15:00 +9°C° 0 mm 10 mps 762 mmHg 72%
    16:00 +8°C° 0 mm 10 mps 762 mmHg 77%
    17:00 +8°C° 0 mm 10 mps 762 mmHg 77%
    18:00 +8°C° 0 mm 10 mps 763 mmHg 77%
    19:00 +7°C° 0 mm 10 mps 763 mmHg 78%
    20:00 +7°C° 0 mm 10 mps 763 mmHg 77%
    21:00 +8°C° 0 mm 10 mps 763 mmHg 77%
    22:00 +8°C° 0 mm 10 mps 763 mmHg 77%
    23:00 +8°C° 0 mm 9 mps 763 mmHg 77%

    Tomorrow, 12 December, Tuesday

    Time Temperature Precipitation Wind Pressure Humidity
    00:00 +8°C° 0 mm 9 mps 763 mmHg 78%
    01:00 +8°C° 0 mm 9 mps 763 mmHg 78%
    02:00 +8°C° 0 mm 9 mps 763 mmHg 79%
    03:00 +9°C° 0 mm 8 mps 763 mmHg 79%
    04:00 +9°C° 0 mm 8 mps 763 mmHg 80%
    05:00 +9°C° 0 mm 8 mps 763 mmHg 80%
    06:00 +9°C° 0 mm 8 mps 763 mmHg 81%
    07:00 +9°C° 0 mm 8 mps 764 mmHg 81%
    08:00 +11°C° 0 mm 8 mps 764 mmHg 79%
    09:00 +12°C° 0 mm 8 mps 764 mmHg 77%
    10:00 +13°C° 0 mm 8 mps 764 mmHg 75%
    11:00 +15°C° 0 mm 8 mps 764 mmHg 75%
    12:00 +15°C° 0 mm 8 mps 764 mmHg 75%
    13:00 +16°C° 0 mm 8 mps 763 mmHg 75%
    14:00 +15°C° 0 mm 8 mps 764 mmHg 78%
    15:00 +13°C° 0 mm 8 mps 764 mmHg 81%
    16:00 +13°C° 0 mm 8 mps 764 mmHg 84%
    17:00 +12°C° 0 mm 8 mps 764 mmHg 85%
    18:00 +12°C° 0 mm 8 mps 764 mmHg 85%
    19:00 +11°C° 0 mm 8 mps 765 mmHg 86%
    20:00 +11°C° 0 mm 7 mps 765 mmHg 85%
    21:00 +10°C° 0 mm 7 mps 765 mmHg 84%
    22:00 +10°C° 0 mm 7 mps 766 mmHg 83%
    23:00 +10°C° 0 mm 7 mps 766 mmHg 83%

    Day after tomorrow, 13 December, Wednesday

    Time Temperature Precipitation Wind Pressure Humidity
    00:00 +10°C° 0 mm 7 mps 766 mmHg 82%
    01:00 +10°C° 0 mm 7 mps 765 mmHg 81%
    02:00 +10°C° 0 mm 7 mps 765 mmHg 81%
    03:00 +9°C° 0 mm 7 mps 765 mmHg 80%
    04:00 +9°C° 0 mm 7 mps 765 mmHg 80%
    05:00 +9°C° 0 mm 7 mps 765 mmHg 80%
    06:00 +9°C° 0 mm 7 mps 765 mmHg 79%
    07:00 +9°C° 0 mm 7 mps 765 mmHg 79%
    08:00 +11°C° 0 mm 8 mps 765 mmHg 76%
    09:00 +12°C° 0 mm 8 mps 765 mmHg 73%
    10:00 +15°C° 0 mm 8 mps 765 mmHg 70%
    11:00 +15°C° 0.1 mm 8 mps 764 mmHg 68%
    12:00 +16°C° 0.1 mm 8 mps 764 mmHg 66%
    13:00 +16°C° 0.1 mm 8 mps 763 mmHg 65%
    14:00 +16°C° 0.2 mm 8 mps 763 mmHg 70%
    15:00 +15°C° 0.2 mm 7 mps 763 mmHg 75%
    16:00 +14°C° 0.2 mm 7 mps 763 mmHg 80%
    17:00 +13°C° 0.4 mm 6 mps 763 mmHg 81%
    18:00 +13°C° 0.4 mm 6 mps 763 mmHg 83%
    19:00 +12°C° 0.4 mm 5 mps 763 mmHg 84%
    20:00 +12°C° 1.1 mm 5 mps 763 mmHg 86%
    21:00 +12°C° 1.1 mm 5 mps 763 mmHg 88%
    22:00 +12°C° 1.1 mm 5 mps 763 mmHg 90%
    23:00 +12°C° 1 mm 5 mps 763 mmHg 92%

    14 December, Thursday

    Time Temperature Precipitation Wind Pressure Humidity
    00:00 +12°C° 1 mm 5 mps 762 mmHg 95%
    01:00 +12°C° 1 mm 5 mps 762 mmHg 97%
    02:00 +10°C° 0.2 mm 5 mps 762 mmHg 96%
    03:00 +10°C° 0.2 mm 5 mps 763 mmHg 94%
    04:00 +10°C° 0.2 mm 5 mps 763 mmHg 93%
    05:00 +10°C° 0 mm 4 mps 763 mmHg 92%
    06:00 +10°C° 0 mm 4 mps 764 mmHg 91%
    07:00 +9°C° 0 mm 3 mps 764 mmHg 90%
    08:00 +10°C° 0 mm 3 mps 764 mmHg 83%
    09:00 +11°C° 0 mm 3 mps 764 mmHg 76%
    10:00 +13°C° 0 mm 2 mps 764 mmHg 69%
    11:00 +12°C° 0 mm 3 mps 764 mmHg 66%
    12:00 +13°C° 0 mm 3 mps 763 mmHg 63%
    13:00 +13°C° 0 mm 3 mps 763 mmHg 60%
    14:00 +12°C° 0 mm 3 mps 763 mmHg 66%
    15:00 +11°C° 0 mm 3 mps 763 mmHg 71%
    16:00 +12°C° 0 mm 2 mps 763 mmHg 76%
    17:00 +10°C° 0 mm 3 mps 763 mmHg 77%
    18:00 +9°C° 0 mm 3 mps 763 mmHg 79%
    19:00 +8°C° 0 mm 4 mps 763 mmHg 80%
    20:00 +8°C° 0 mm 4 mps 763 mmHg 79%
    21:00 +8°C° 0 mm 4 mps 764 mmHg 78%
    22:00 +7°C° 0 mm 4 mps 764 mmHg 77%
    23:00 +7°C° 0 mm 5 mps 763 mmHg 75%

    15 December, Friday

    Time Temperature Precipitation Wind Pressure Humidity
    00:00 +7°C° 0 mm 5 mps 763 mmHg 73%
    01:00 +7°C° 0 mm 6 mps 762 mmHg 71%
    02:00 +7°C° 0 mm 6 mps 762 mmHg 71%
    03:00 +7°C° 0 mm 6 mps 762 mmHg 71%
    04:00 +7°C° 0 mm 6 mps 761 mmHg 71%
    05:00 +7°C° 0 mm 6 mps 761 mmHg 70%
    06:00 +7°C° 0 mm 6 mps 761 mmHg 69%
    07:00 +7°C° 0 mm 6 mps 761 mmHg 68%
    08:00 +9°C° 0 mm 7 mps 761 mmHg 66%
    09:00 +10°C° 0 mm 8 mps 761 mmHg 65%
    10:00 +11°C° 0 mm 8 mps 761 mmHg 63%
    11:00 +12°C° 0.1 mm 9 mps 760 mmHg 65%
    12:00 +12°C° 0.1 mm 10 mps 759 mmHg 67%
    13:00 +13°C° 0.1 mm 10 mps 759 mmHg 69%
    14:00 +12°C° 0.1 mm 11 mps 758 mmHg 73%
    15:00 +12°C° 0.1 mm 11 mps 758 mmHg 77%
    16:00 +11°C° 0.1 mm 11 mps 758 mmHg 80%
    17:00 +11°C° 0.1 mm 11 mps 758 mmHg 81%
    18:00 +11°C° 0.1 mm 11 mps 758 mmHg 81%
    19:00 +11°C° 0.1 mm 11 mps 758 mmHg 82%
    20:00 +9°C° 0.2 mm 11 mps 758 mmHg 81%
    21:00 +9°C° 0.2 mm 11 mps 758 mmHg 81%
    22:00 +9°C° 0.2 mm 11 mps 758 mmHg 81%
    23:00 +9°C° 0.1 mm 11 mps 758 mmHg 81%

    16 December, Saturday

    Time Temperature Precipitation Wind Pressure Humidity
    00:00 +9°C° 0.1 mm 11 mps 757 mmHg 81%
    01:00 +9°C° 0.1 mm 11 mps 757 mmHg 82%
    02:00 +9°C° 0.1 mm 11 mps 756 mmHg 82%
    03:00 +9°C° 0.1 mm 11 mps 756 mmHg 83%
    04:00 +9°C° 0.1 mm 12 mps 755 mmHg 83%
    05:00 +9°C° 0 mm 12 mps 755 mmHg 83%
    06:00 +9°C° 0 mm 12 mps 755 mmHg 82%
    07:00 +9°C° 0 mm 12 mps 755 mmHg 82%
    08:00 +10°C° 0.1 mm 12 mps 754 mmHg 80%
    09:00 +12°C° 0.1 mm 12 mps 754 mmHg 78%
    10:00 +13°C° 0.1 mm 12 mps 754 mmHg 77%
    11:00 +13°C° 1.2 mm 12 mps 754 mmHg 78%
    12:00 +13°C° 1.2 mm 12 mps 753 mmHg 79%
    13:00 +13°C° 1.2 mm 12 mps 753 mmHg 80%
    14:00 +13°C° 1.4 mm 11 mps 752 mmHg 82%
    15:00 +12°C° 1.4 mm 10 mps 752 mmHg 84%
    16:00 +12°C° 1.4 mm 9 mps 751 mmHg 85%
    17:00 +12°C° 3.8 mm 9 mps 751 mmHg 85%
    18:00 +11°C° 3.8 mm 9 mps 750 mmHg 84%
    19:00 +11°C° 3.8 mm 8 mps 750 mmHg 84%
    20:00 +11°C° 5.9 mm 8 mps 749 mmHg 85%
    21:00 +11°C° 5.9 mm 8 mps 749 mmHg 86%
    22:00 +11°C° 5.9 mm 8 mps 749 mmHg 87%
    23:00 +11°C° 4.4 mm 7 mps 748 mmHg 86%
    Show more